Location: Huntsville
(41.2590°N, 111.7678°W)
Time: 02:04:51
(UTC+00:00)

A-11 Canister half - All Passes

Search period start: 03 October 2022 00:00
Search period end: 13 October 2022 00:00
Orbit: 1515 x 1684 km, 47.2° (Epoch: 02 October)

Date Brightness Start Highest point End Pass type
(mag) Time Alt. Az. Time Alt. Az. Time Alt. Az.
03 Oct - 01:28:33 10° SSE 01:34:50 19° SE 01:40:58 10° E visible
03 Oct - 03:28:49 10° SW 03:38:26 63° SE 03:47:43 10° ENE visible
03 Oct - 05:33:49 10° W 05:43:27 69° NNW 05:52:48 10° ENE visible
03 Oct - 07:39:55 10° WNW 07:49:20 64° N 07:58:32 10° E visible
03 Oct - 09:45:16 10° WNW 09:54:35 76° SSW 10:03:48 10° SE visible
03 Oct - 11:51:17 10° WNW 11:58:20 25° SW 12:05:25 10° S visible
04 Oct - 01:06:09 10° SSE 01:11:59 18° SE 01:17:43 10° E daylight
04 Oct - 03:05:58 10° SW 03:15:32 60° SE 03:24:47 10° ENE visible
04 Oct - 05:10:49 10° W 05:20:29 71° NNW 05:29:51 10° ENE visible
04 Oct - 07:16:56 10° WNW 07:26:22 63° N 07:35:33 10° E visible
04 Oct - 09:22:19 10° WNW 09:31:41 79° SSW 09:40:55 10° SE visible
04 Oct - 11:28:12 10° WNW 11:35:31 27° SW 11:42:51 10° S visible
05 Oct - 00:43:49 10° SSE 00:49:10 16° SE 00:54:25 10° E daylight
05 Oct - 02:43:05 10° SW 02:52:37 57° SE 03:01:50 10° ENE visible
05 Oct - 04:47:48 10° WSW 04:57:31 72° NNW 05:06:55 10° ENE visible
05 Oct - 06:53:56 10° WNW 07:03:23 62° N 07:12:35 10° E visible
05 Oct - 08:59:22 10° WNW 09:08:47 82° SSW 09:18:01 10° SE visible
05 Oct - 11:05:08 10° WNW 11:12:42 29° SW 11:20:14 10° S visible
06 Oct - 00:21:35 10° SSE 00:26:20 15° ESE 00:31:01 10° E daylight
06 Oct - 02:20:15 10° SSW 02:29:44 54° SE 02:38:54 10° ENE visible
06 Oct - 04:24:47 10° WSW 04:34:33 74° NNW 04:43:59 10° ENE visible
06 Oct - 06:30:56 10° WNW 06:40:25 62° N 06:49:37 10° E visible
06 Oct - 08:36:25 10° WNW 08:45:51 85° SSW 08:55:07 10° ESE visible
06 Oct - 10:42:04 10° WNW 10:49:52 31° SW 10:57:37 10° S visible
06 Oct - 23:59:29 10° SSE 00:03:30 13° ESE 00:07:29 10° E daylight
07 Oct - 01:57:24 10° SSW 02:06:50 51° SE 02:15:57 10° ENE visible
07 Oct - 04:01:46 10° WSW 04:11:35 76° NNW 04:21:04 10° ENE visible
07 Oct - 06:07:55 10° WNW 06:17:26 61° N 06:26:38 10° E visible
07 Oct - 08:13:28 10° WNW 08:22:57 88° SSW 08:32:13 10° ESE night (unlit)
07 Oct - 10:19:02 10° WNW 10:27:01 34° SW 10:34:57 10° SSE visible
07 Oct - 23:37:36 10° SE 23:40:41 12° ESE 23:43:44 10° ESE daylight
08 Oct - 01:34:35 10° SSW 01:43:56 48° SE 01:53:00 10° ENE visible
08 Oct - 03:38:47 10° WSW 03:48:38 78° NNW 03:58:08 10° ENE visible
08 Oct - 05:44:54 10° WNW 05:54:26 61° N 06:03:40 10° E visible
08 Oct - 07:50:30 10° WNW 08:00:01 89° NNE 08:09:18 10° ESE visible
08 Oct - 09:56:01 10° WNW 10:04:11 36° SW 10:12:18 10° SSE visible
08 Oct - 23:16:20 10° SE 23:17:52 10° ESE 23:19:23 10° ESE daylight
09 Oct - 01:11:47 10° SSW 01:21:03 46° SE 01:30:02 10° ENE visible
09 Oct - 03:15:46 10° WSW 03:25:39 81° NNW 03:35:12 10° ENE visible
09 Oct - 05:21:53 10° W 05:31:27 61° N 05:40:42 10° E visible
09 Oct - 07:27:33 10° WNW 07:37:06 86° NNE 07:46:23 10° ESE visible
09 Oct - 09:33:00 10° WNW 09:41:21 38° SW 09:49:36 10° SSE visible
10 Oct - 00:48:59 10° SSW 00:58:10 43° SE 01:07:03 10° ENE daylight
10 Oct - 02:52:46 10° WSW 03:02:42 83° NNW 03:12:16 10° ENE visible
10 Oct - 04:58:51 10° W 05:08:27 61° N 05:17:44 10° E visible
10 Oct - 07:04:35 10° WNW 07:14:09 84° NNE 07:23:28 10° ESE visible
10 Oct - 09:10:00 10° WNW 09:18:30 41° SW 09:26:54 10° SSE night (unlit)
11 Oct - 00:26:13 10° SSW 00:35:16 41° SE 00:44:04 10° ENE daylight
11 Oct - 02:29:46 10° WSW 02:39:44 86° NNW 02:49:21 10° ENE visible
11 Oct - 04:35:50 10° W 04:45:28 61° N 04:54:45 10° E visible
11 Oct - 06:41:36 10° WNW 06:51:12 81° NNE 07:00:32 10° ESE visible
11 Oct - 08:46:59 10° WNW 08:55:39 44° SW 09:04:10 10° SSE night (unlit)
12 Oct - 00:03:27 10° SSW 00:12:23 38° SE 00:21:05 10° ENE daylight
12 Oct - 02:06:47 10° WSW 02:16:47 88° NNW 02:26:25 10° ENE visible
12 Oct - 04:12:47 10° W 04:22:28 61° N 04:31:48 10° ENE visible
12 Oct - 06:18:38 10° WNW 06:28:16 79° NNE 06:37:35 10° ESE visible
12 Oct - 08:23:59 10° WNW 08:32:47 46° SW 08:41:26 10° SSE night (unlit)
12 Oct - 10:35:15 10° WSW 10:35:47 10° WSW 10:36:19 10° SW night (unlit)
12 Oct - 23:40:44 10° SSW 23:49:31 36° SE 23:58:04 10° ENE daylight
